Location: *
(49.9853°N, 3.5569°E)
Time: 03:26:20
(UTC+00:00)

Cosmos 1943 - Pass Details

Date: 22 September 2019
Orbit: 833 x 851 km, 71.0° (Epoch: 15 October)

Event Time Altitude Azimuth Distance (km) Brightness Sun altitude
Rises 20:13:57 0° 332° (NNW) 3,427 7.3 -23.6°
Reaches altitude 10° 20:16:29 10° 337° (NNW) 2,486 6.4 -24.0°
Maximum altitude 20:22:05 54° 55° (NE) 1,029 3.4 -24.7°
Enters shadow 20:22:31 52° 72° (ENE) 1,043 3.4 -24.8°
